Lid_Strength_Index
6 5 3 2 2 2 2 2 2 2 2 2 2 1 1 1 2 1 2 2 2 1
7 6 4 1 1 2 2 2 2 2 2 2 3 2 2 1 2 2 3 4 6 7
9 7 6 3 3 2 2 2 2 2 2 2 2 2 2 3 5 7 9 9 10 10
9 8 7 5 3 3 2 2 3 3 2 2 3 4 5 8 8 10 11 11 12 12
9 8 7 6 3 3 3 4 5 6 7 7 7 8 9 10 11 12 13 13 13 13
10 10 9 7 6 3 4 7 7 8 9 9 10 11 11 12 12 13 13 14 15 15
8 11 10 8 7 6 5 7 7 8 9 9 10 11 12 13 14 15 16 16 15 16
9 9 11 11 11 11 12 12 12 10 11 12 12 13 14 15 15 16 17 17 17 17
10 10 10 11 12 14 14 14 15 15 15 15 15 14 15 16 17 17 18 18 18 17
10 12 12 11 13 14 14 14 15 15 16 16 16 15 15 16 17 17 17 17 17 17
10 12 12 12 12 13 13 14 15 15 15 16 16 15 15 16 17 17 17 17 17 17
10 11 11 12 13 12 13 14 15 15 15 15 16 15 15 16 17 18 18 18 18 17
10 10 11 12 13 13 13 14 15 15 15 16 16 14 15 16 17 18 18 18 17 17
10 11 12 13 13 13 14 14 15 15 16 15 15 15 14 15 17 18 18 18 17 16